Mitchell, SD

4:37 PM CDT on October 21, 2017 (GMT -0500)
Mitchell Municipal

Weather History for KMHE - July, 2013

Change the Weather History Date:

Wednesday, July 17, 2013

  Actual Average Record
Temperature  
Mean Temperature 81 °F 75 °F  
Max Temperature 91 °F 87 °F 113 °F (1936)
Min Temperature 70 °F 63 °F 48 °F (1906)
Degree Days  
Heating Degree Days 0 0  
Month to date heating degree days 0 0  
Since 1 June heating degree days 50 35  
Since 1 July heating degree days 0 0  
Cooling Degree Days 16 10  
Month to date cooling degree days 209 168  
Year to date cooling degree days 433 378  
Since 1 June cooling degree days 376 338  
Growing Degree Days 30 (Base 50)    
Moisture  
Dew Point 66 °F    
Average Humidity 64    
Maximum Humidity 84    
Minimum Humidity 44    
Precipitation  
Precipitation 0.00 in 0.10 in 1.92 in (1993)
Month to date precipitation 2.95 1.82  
Year to date precipitation 15.04 12.68  
Snow  
Snow 0.00 in - T in (2010)
Month to date snowfall 0.0  
Since 1 June snowfall 0.0  
Since 1 July snowfall 0.0  
Snow Depth 0.00 in    
Sea Level Pressure  
Sea Level Pressure 30.15 in    
Wind  
Wind Speed 11 mph (South)    
Max Wind Speed 18 mph    
Max Gust Speed 24 mph    
Visibility 10 miles    
Events      
T = Trace of Precipitation, MM = Missing Value Source: NWS Daily Summary

Daily Weather History Graph

Daily Weather History Graph

Search for Another Location

Airport or City:

Trip Planner

Search our weather history database for the weather conditions in past years. The results will help you decide how hot, cold, wet, or windy it might be!

Date:

Astronomy

Jul. 17, 2013 Rise Set
Actual Time 6:06 AM CDT 9:10 PM CDT
Civil Twilight 5:31 AM CDT 9:44 PM CDT
Nautical Twilight 4:47 AM CDT 10:28 PM CDT
Astronomical Twilight 3:54 AM CDT 11:21 PM CDT
Moon 3:58 PM CDT (7/17) 1:17 AM CDT (7/17)
Length of Visible Light 16h 12m
Length of Day
15h 03m
Waxing Gibbous, 67% of the Moon is Illuminated
Jul 17
Waxing Gibbous
Jul 22
Full
Jul 29
Last Quarter
Aug 6
New
Aug 14
First Quarter

Hourly Weather History & Observations

Time (CDT) Temp. Heat Index Dew Point Humidity Pressure Visibility Wind Dir Wind Speed Gust Speed Precip Events Conditions
12:53 AM 77.0 °F - 66.0 °F 69% 30.18 in 10.0 mi South 10.4 mph - N/A   Clear
1:53 AM 75.0 °F - 64.9 °F 71% 30.19 in 10.0 mi South 6.9 mph - N/A   Clear
2:53 AM 73.9 °F - 64.9 °F 73% 30.19 in 10.0 mi South 8.1 mph - N/A   Scattered Clouds
3:53 AM 73.0 °F - 64.9 °F 76% 30.19 in 10.0 mi South 6.9 mph - N/A   Clear
4:53 AM 72.0 °F - 64.9 °F 78% 30.19 in 10.0 mi South 8.1 mph - N/A   Clear
5:53 AM 71.1 °F - 64.0 °F 78% 30.20 in 10.0 mi South 5.8 mph - N/A   Clear
6:53 AM 70.0 °F - 64.9 °F 84% 30.21 in 10.0 mi SSE 6.9 mph - N/A   Partly Cloudy
7:53 AM 73.9 °F - 66.0 °F 76% 30.22 in 10.0 mi SE 4.6 mph - N/A   Clear
8:53 AM 77.0 °F - 66.0 °F 69% 30.21 in 10.0 mi South 9.2 mph - N/A   Clear
9:53 AM 80.1 °F 82.1 °F 66.0 °F 62% 30.22 in 10.0 mi South 9.2 mph 17.3 mph N/A   Clear
10:53 AM 82.9 °F 84.4 °F 64.0 °F 53% 30.21 in 10.0 mi South 13.8 mph 19.6 mph N/A   Clear
11:53 AM 86.0 °F 88.2 °F 66.0 °F 51% 30.20 in 10.0 mi South 11.5 mph 18.4 mph N/A   Clear
12:53 PM 87.1 °F 88.9 °F 64.9 °F 48% 30.20 in 10.0 mi South 11.5 mph 19.6 mph N/A   Clear
1:53 PM 88.0 °F 89.6 °F 64.9 °F 46% 30.18 in 10.0 mi South 13.8 mph - N/A   Clear
2:53 PM 89.1 °F 91.3 °F 66.0 °F 46% 30.15 in 10.0 mi SSW 11.5 mph 20.7 mph N/A   Clear
3:53 PM 90.0 °F 91.7 °F 64.9 °F 43% 30.13 in 10.0 mi SSW 15.0 mph - N/A   Clear
4:53 PM 90.0 °F 91.7 °F 64.9 °F 43% 30.12 in 10.0 mi South 10.4 mph - N/A   Clear
5:53 PM 89.1 °F 91.0 °F 64.9 °F 45% 30.10 in 10.0 mi South 15.0 mph 20.7 mph N/A   Clear
6:53 PM 89.1 °F 92.9 °F 68.0 °F 50% 30.08 in 10.0 mi SSE 15.0 mph 21.9 mph N/A   Clear
7:53 PM 86.0 °F 90.1 °F 69.1 °F 57% 30.07 in 10.0 mi SSE 12.7 mph - N/A   Clear
8:53 PM 84.0 °F 87.0 °F 68.0 °F 58% 30.06 in 10.0 mi SSE 10.4 mph - N/A   Clear
9:53 PM 82.0 °F 84.9 °F 68.0 °F 62% 30.06 in 10.0 mi SSE 15.0 mph - N/A   Clear
10:53 PM 80.1 °F 82.7 °F 68.0 °F 67% 30.06 in 10.0 mi South 13.8 mph - N/A   Clear
11:53 PM 80.1 °F 82.7 °F 68.0 °F 67% 30.06 in 10.0 mi South 11.5 mph - N/A   Clear